YN1ZSC-13 Weather Reports


time (UTC)temp
F
wind
direction
speed
knots
gust
knots
rain 1hr
in
rain 24hr
in
rain mn
in
humidity
%
barometer
mb
20260507111735 77 140 4.3 0.0 0.00 0.00 0.00 71 1011.0
20260507110734 78 140 5.2 0.0 0.00 0.00 0.00 72 1011.0
20260507105733 73 96 9.6 20.9 0.00 0.00 0.00 67 1011.0
20260507104733 74 96 9.6 20.9 0.00 0.00 0.00 67 1011.0
20260507103732 74 96 9.6 20.9 0.00 0.00 0.00 65 1011.0
20260507102732 75 96 9.6 20.9 0.00 0.00 0.00 66 1011.0
20260507101731 75 96 9.6 20.9 0.00 0.00 0.00 63 1011.0
20260507100731 75 96 9.6 20.9 0.00 0.00 0.00 63 1011.0
20260507095730 75 96 9.6 20.9 0.00 0.00 0.00 63 1011.0
20260507094729 76 96 9.6 20.9 0.00 0.00 0.00 63 1011.0
20260507093729 77 96 9.6 20.9 0.00 0.00 0.00 63 1011.0
20260507092728 74 90 11.3 18.2 0.00 0.00 0.00 64 1011.0
20260507091727 75 90 11.3 18.2 0.00 0.00 0.00 64 1011.0
20260507090727 75 90 11.3 18.2 0.00 0.00 0.00 64 1011.0
20260507085726 75 90 11.3 18.2 0.00 0.00 0.00 64 1011.0
20260507084725 76 90 11.3 18.2 0.00 0.00 0.00 64 1011.0
20260507083725 77 90 11.3 18.2 0.00 0.00 0.00 64 1011.0
20260507082724 78 90 11.3 18.2 0.00 0.00 0.00 64 1011.0
20260507081724 75 92 13.0 19.1 0.00 0.00 0.00 65 1011.0
20260507080723 75 92 13.0 19.1 0.00 0.00 0.00 65 1011.0
20260507075723 75 92 13.0 19.1 0.00 0.00 0.00 67 1011.0
20260507074722 75 103 9.6 15.6 0.00 0.00 0.00 63 1011.0
20260507073722 76 103 9.6 15.6 0.00 0.00 0.00 63 1011.0
20260507072721 77 103 9.6 15.6 0.00 0.00 0.00 63 1012.0
20260507071720 78 103 9.6 15.6 0.00 0.00 0.00 63 1012.0
20260507070704 79 103 9.6 15.6 0.00 0.00 0.00 63 1012.0
20260507065703 80 103 9.6 15.6 0.00 0.00 0.00 63 1012.0
20260507064702 80 103 9.6 15.6 0.00 0.00 0.00 63 1012.0
20260507063702 80 103 9.6 15.6 0.00 0.00 0.00 63 1012.0
20260507062701 81 103 9.6 15.6 0.00 0.00 0.00 63 1012.0
20260507061701 76 130 9.6 0.0 0.00 0.00 0.00 61 1012.0
20260507060700 76 130 9.6 0.0 0.00 0.00 0.00 61 1012.0
20260507055700 77 130 9.6 0.0 0.00 0.00 0.00 61 1012.0
20260507054659 78 130 9.6 0.0 0.00 0.00 0.00 61 1012.0
20260507053658 78 130 9.6 0.0 0.00 0.00 0.00 61 1012.0
20260507052658 79 130 9.6 0.0 0.00 0.00 0.00 61 1012.0
20260507051657 80 130 9.6 0.0 0.00 0.00 0.00 61 1012.0
20260507050657 81 130 9.6 0.0 0.00 0.00 0.00 61 1012.0
20260507045656 81 130 9.6 0.0 0.00 0.00 0.00 61 1012.0
20260507044655 81 130 9.6 0.0 0.00 0.00 0.00 61 1012.0
20260507043655 82 130 9.6 0.0 0.00 0.00 0.00 60 1012.0
20260507042655 82 130 9.6 0.0 0.00 0.00 0.00 59 1012.0
20260507041654 83 130 9.6 0.0 0.00 0.00 0.00 58 1012.0
20260507040653 83 110 4.3 0.0 0.00 0.00 0.00 56 1012.0
20260507035652 84 110 4.3 0.0 0.00 0.00 0.00 56 1012.0
20260507034652 80 104 11.3 20.9 0.00 0.00 0.00 50 1012.0
20260507033651 80 104 11.3 20.9 0.00 0.00 0.00 50 1012.0
20260507032651 81 104 11.3 20.9 0.00 0.00 0.00 50 1012.0
20260507031650 82 104 11.3 20.9 0.00 0.00 0.00 50 1012.0
20260507030649 83 104 11.3 20.9 0.00 0.00 0.00 50 1012.0
20260507025649 82 104 11.3 20.9 0.00 0.00 0.00 48 1012.0
20260507024647 81 104 11.3 20.9 0.00 0.00 0.00 46 1012.0
20260507023647 81 104 11.3 20.9 0.00 0.00 0.00 46 1012.0
20260507022646 82 104 11.3 20.9 0.00 0.00 0.00 46 1011.0
20260507021646 82 104 11.3 20.9 0.00 0.00 0.00 46 1011.0
20260507020645 82 104 11.3 20.9 0.00 0.00 0.00 46 1011.0
20260507015645 82 104 11.3 20.9 0.00 0.00 0.00 46 1011.0
20260507014644 83 104 11.3 20.9 0.00 0.00 0.00 46 1010.0
20260507013643 84 104 11.3 20.9 0.00 0.00 0.00 46 1010.0
20260507012643 85 104 11.3 20.9 0.00 0.00 0.00 46 1009.0
20260507011642 86 104 11.3 20.9 0.00 0.00 0.00 46 1009.0
20260507010642 86 104 11.3 20.9 0.00 0.00 0.00 46 1009.0
20260507005641 94 120 9.6 0.0 0.00 0.00 0.00 43 1009.0
20260507004640 94 120 9.6 0.0 0.00 0.00 0.00 43 1009.0
20260507003640 93 120 9.6 0.0 0.00 0.00 0.00 43 1009.0
20260507002639 94 120 9.6 0.0 0.00 0.00 0.00 43 1009.0
20260507001639 84 107 15.6 15.6 0.00 0.00 0.00 38 1009.0
20260507000638 85 107 15.6 15.6 0.00 0.00 0.00 37 1009.0
20260506235638 86 107 15.6 15.6 0.00 0.00 0.00 36 1009.0
20260506234637 87 107 15.6 15.6 0.00 0.00 0.00 36 1008.0
20260506233636 87 107 15.6 15.6 0.00 0.00 0.00 36 1008.0
20260506232636 87 107 15.6 15.6 0.00 0.00 0.00 36 1008.0
20260506231635 87 107 15.6 15.6 0.00 0.00 0.00 35 1008.0
20260506230635 87 107 15.6 15.6 0.00 0.00 0.00 35 1008.0
20260506225634 88 107 15.6 15.6 0.00 0.00 0.00 35 1008.0
20260506224633 88 107 15.6 15.6 0.00 0.00 0.00 35 1008.0
20260506223633 89 107 15.6 15.6 0.00 0.00 0.00 35 1008.0
20260506222632 90 107 15.6 15.6 0.00 0.00 0.00 34 1008.0
20260506221631 91 107 15.6 15.6 0.00 0.00 0.00 34 1008.0
20260506220631 92 107 15.6 15.6 0.00 0.00 0.00 34 1008.0
20260506215625 93 107 15.6 15.6 0.00 0.00 0.00 33 1008.0
20260506214625 94 107 15.6 15.6 0.00 0.00 0.00 33 1008.0
20260506213624 95 107 15.6 15.6 0.00 0.00 0.00 33 1008.0
20260506212623 96 107 15.6 15.6 0.00 0.00 0.00 33 1008.0
20260506211623 97 107 15.6 15.6 0.00 0.00 0.00 33 1008.0
20260506210622 98 110 11.3 0.0 0.00 0.00 0.00 32 1008.0
20260506205622 92 107 15.6 15.6 0.00 0.00 0.00 35 1007.0
20260506204621 93 104 14.8 15.6 0.00 0.00 0.00 35 1007.0
20260506203620 92 100 11.3 0.0 0.00 0.00 0.00 36 1007.0
20260506202620 93 100 11.3 0.0 0.00 0.00 0.00 35 1008.0
20260506201619 93 100 11.3 0.0 0.00 0.00 0.00 34 1008.0
20260506200618 94 100 11.3 0.0 0.00 0.00 0.00 34 1008.0
20260506195618 95 100 11.3 0.0 0.00 0.00 0.00 34 1008.0
20260506194617 96 100 11.3 0.0 0.00 0.00 0.00 34 1008.0
20260506193617 97 100 11.3 0.0 0.00 0.00 0.00 34 1008.0
20260506192616 98 100 11.3 0.0 0.00 0.00 0.00 34 1010.0
20260506191616 92 90 13.0 0.0 0.00 0.00 0.00 39 1010.0
20260506190615 93 90 13.0 0.0 0.00 0.00 0.00 39 1010.0
20260506185614 93 90 13.0 0.0 0.00 0.00 0.00 39 1009.0
20260506184614 93 90 13.9 0.0 0.00 0.00 0.00 39 1010.0
20260506183613 94 90 13.9 0.0 0.00 0.00 0.00 39 1010.0
20260506182613 90 70 9.6 0.0 0.00 0.00 0.00 46 1011.0
20260506181612 91 70 9.6 0.0 0.00 0.00 0.00 46 1011.0
20260506180611 91 70 9.6 0.0 0.00 0.00 0.00 46 1011.0
20260506175611 91 70 9.6 0.0 0.00 0.00 0.00 46 1011.0
20260506174610 92 70 9.6 0.0 0.00 0.00 0.00 46 1011.0
20260506173610 90 70 9.6 0.0 0.00 0.00 0.00 46 1011.0
20260506172609 88 80 11.3 0.0 0.00 0.00 0.00 48 1012.0
20260506171608 88 80 11.3 0.0 0.00 0.00 0.00 48 1012.0
20260506170608 89 80 11.3 0.0 0.00 0.00 0.00 48 1012.0
20260506165607 88 80 11.3 0.0 0.00 0.00 0.00 49 1012.0
20260506164607 89 80 11.3 0.0 0.00 0.00 0.00 49 1012.0
20260506163606 87 80 11.3 0.0 0.00 0.00 0.00 52 1012.0
20260506162605 88 80 11.3 0.0 0.00 0.00 0.00 52 1012.0
20260506161605 89 80 11.3 0.0 0.00 0.00 0.00 53 1012.0
20260506160605 89 80 11.3 0.0 0.00 0.00 0.00 54 1012.0
20260506155604 85 80 11.3 0.0 0.00 0.00 0.00 58 1012.0
20260506154603 86 80 11.3 0.0 0.00 0.00 0.00 58 1012.0
20260506153603 83 90 15.6 0.0 0.00 0.00 0.00 58 1012.0
20260506152603 84 90 15.6 0.0 0.00 0.00 0.00 58 1012.0
20260506151602 84 90 15.6 0.0 0.00 0.00 0.00 58 1012.0
20260506150602 85 90 15.6 0.0 0.00 0.00 0.00 58 1012.0
20260506145601 86 90 15.6 0.0 0.00 0.00 0.00 58 1012.0
20260506144600 86 90 15.6 0.0 0.00 0.00 0.00 58 1012.0
20260506143600 80 90 15.6 0.0 0.00 0.00 0.00 70 1012.0
20260506142559 81 86 13.0 17.4 0.00 0.00 0.00 70 1012.0
20260506141558 82 86 13.0 17.4 0.00 0.00 0.00 70 1012.0
20260506140558 80 110 7.8 0.0 0.00 0.00 0.00 70 1012.0
20260506135558 80 110 7.8 0.0 0.00 0.00 0.00 70 1012.0
20260506134557 80 110 7.8 0.0 0.00 0.00 0.00 70 1012.0
20260506133556 81 110 7.8 0.0 0.00 0.00 0.00 70 1012.0
20260506132556 82 110 7.8 0.0 0.00 0.00 0.00 70 1012.0
20260506131555 83 110 7.8 0.0 0.00 0.00 0.00 70 1012.0
20260506130555 77 80 3.5 0.0 0.00 0.00 0.00 76 1012.0
20260506125554 78 80 3.5 0.0 0.00 0.00 0.00 76 1012.0
20260506124554 76 110 7.0 0.0 0.00 0.00 0.00 75 1012.0
20260506123553 76 110 7.0 0.0 0.00 0.00 0.00 75 1012.0
20260506122553 76 110 7.0 0.0 0.00 0.00 0.00 74 1012.0
20260506121552 76 110 7.0 0.0 0.00 0.00 0.00 74 1012.0
20260506120552 76 110 7.0 0.0 0.00 0.00 0.00 73 1012.0
20260506115551 76 110 7.0 0.0 0.00 0.00 0.00 73 1012.0
20260506114551 76 110 7.0 0.0 0.00 0.00 0.00 73 1012.0
20260506113550 76 110 7.0 0.0 0.00 0.00 0.00 73 1012.0
20260506112550 76 110 7.0 0.0 0.00 0.00 0.00 73 1011.0